Elkins, WV

4:26 AM EST on February 25, 2017 (GMT -0500)
Elkins-Randolph County

Weather History for KEKN - February, 2013

Change the Weather History Date:

Tuesday, February 5, 2013

  Actual Average Record
Temperature  
Mean Temperature 36 °F 30 °F  
Max Temperature 38 °F 41 °F 64 °F (2008)
Min Temperature 33 °F 20 °F -22 °F (1996)
Degree Days  
Heating Degree Days 29 35  
Month to date heating degree days 217 175  
Since 1 July heating degree days 3470 3576  
Cooling Degree Days 0 0  
Month to date cooling degree days 0 0  
Year to date cooling degree days 0 0  
Moisture  
Dew Point 32 °F    
Average Humidity 86    
Maximum Humidity 96    
Minimum Humidity 76    
Precipitation  
Precipitation 0.17 in 0.10 in 1.90 in (1927)
Month to date precipitation 0.72 0.53  
Year to date precipitation 5.23 3.76  
Snow  
Snow T in - - ()
Month to date snowfall 10.3  
Since 1 September snowfall 48.4  
Snow Depth 4.00 in    
Sea Level Pressure  
Sea Level Pressure 29.88 in    
Wind  
Wind Speed 7 mph (WSW)    
Max Wind Speed 18 mph    
Max Gust Speed 38 mph    
Visibility 7 miles    
Events Rain , Snow    
T = Trace of Precipitation, MM = Missing Value Source: NWS Daily Summary

Daily Weather History Graph

Daily Weather History Graph

Search for Another Location

Airport or City:

Trip Planner

Search our weather history database for the weather conditions in past years. The results will help you decide how hot, cold, wet, or windy it might be!

Date:

Astronomy

Feb. 05, 2013 Rise Set
Actual Time 7:21 AM EST 5:45 PM EST
Civil Twilight 6:53 AM EST 6:13 PM EST
Nautical Twilight 6:22 AM EST 6:45 PM EST
Astronomical Twilight 5:50 AM EST 7:16 PM EST
Moon 3:00 AM EST (2/5) 1:02 PM EST (2/5)
Length of Visible Light 11h 19m
Length of Day
10h 24m
Waning Crescent, 27% of the Moon is Illuminated
Feb 5
Waning Crescent
Feb 10
New
Feb 17
First Quarter
Feb 25
Full
Mar 4
Last Quarter

Hourly Weather History & Observations

Time (EST) Temp. Windchill Dew Point Humidity Pressure Visibility Wind Dir Wind Speed Gust Speed Precip Events Conditions
12:51 AM 36.0 °F 28.5 °F 30.9 °F 82% 29.89 in 9.0 mi SW 10.4 mph 18.4 mph 0.00 in Rain Light Rain
1:12 AM 37.4 °F 30.8 °F 30.2 °F 75% 29.82 in 10.0 mi SW 9.2 mph 21.9 mph 0.00 in   Overcast
1:51 AM 37.0 °F 30.4 °F 32.0 °F 82% 29.88 in 7.0 mi WSW 9.2 mph 19.6 mph 0.00 in   Overcast
2:27 AM 37.4 °F 29.3 °F 32.0 °F 81% 29.81 in 10.0 mi SW 12.7 mph 20.7 mph 0.00 in   Overcast
2:51 AM 37.4 °F 28.9 °F 32.0 °F 81% 29.81 in 9.0 mi WSW 13.8 mph 21.9 mph N/A Rain Light Rain
3:03 AM 37.4 °F 29.8 °F 32.0 °F 81% 29.81 in 9.0 mi WSW 11.5 mph 25.3 mph 0.00 in   Overcast
3:51 AM 37.4 °F 31.4 °F 32.0 °F 81% 29.81 in 8.0 mi WSW 8.1 mph - N/A   Overcast
4:51 AM 36.0 °F 28.0 °F 32.0 °F 86% 29.87 in 7.0 mi WSW 11.5 mph 17.3 mph 0.01 in Rain Light Rain
5:51 AM 36.0 °F 30.3 °F 32.0 °F 86% 29.88 in 7.0 mi Variable 6.9 mph - 0.00 in   Overcast
6:51 AM 33.8 °F 25.3 °F 30.2 °F 87% 29.83 in 6.0 mi NW 11.5 mph - N/A   Overcast
7:43 AM 33.8 °F 29.6 °F 32.0 °F 93% 29.85 in 3.0 mi NNE 4.6 mph - 0.01 in Rain Light Rain
7:51 AM 33.1 °F - 30.9 °F 92% 29.92 in 5.0 mi Calm Calm - 0.01 in   Overcast
8:51 AM 33.1 °F - 32.0 °F 96% 29.91 in 3.0 mi Calm Calm - 0.00 in   Overcast
9:51 AM 34.0 °F - 32.0 °F 92% 29.92 in 4.0 mi Calm Calm - 0.00 in Rain Light Rain
10:46 AM 35.6 °F 32.8 °F 33.8 °F 93% 29.84 in 10.0 mi South 3.5 mph - 0.01 in   Overcast
10:51 AM 35.1 °F 32.2 °F 33.1 °F 92% 29.91 in 10.0 mi SSW 3.5 mph - 0.01 in   Overcast
11:06 AM 35.6 °F 32.8 °F 32.0 °F 87% 29.85 in 10.0 mi SSW 3.5 mph - N/A   Overcast
11:40 AM 35.6 °F 31.7 °F 33.8 °F 93% 29.84 in 7.0 mi SSW 4.6 mph - 0.00 in   Overcast
11:51 AM 35.6 °F 31.7 °F 33.8 °F 93% 29.84 in 5.0 mi Variable 4.6 mph - N/A Rain Light Rain
12:14 PM 37.4 °F 33.8 °F 33.8 °F 87% 29.83 in 9.0 mi SSW 4.6 mph - 0.00 in Rain Light Rain
12:23 PM 37.4 °F 32.8 °F 33.8 °F 87% 29.83 in 9.0 mi South 5.8 mph - 0.00 in Rain Light Rain
12:51 PM 37.0 °F 34.5 °F 33.1 °F 86% 29.87 in 6.0 mi SSW 3.5 mph - 0.00 in Rain Light Rain
1:51 PM 37.0 °F 31.0 °F 33.1 °F 86% 29.87 in 5.0 mi West 8.1 mph - 0.01 in Rain Light Rain
2:51 PM 37.0 °F 28.9 °F 32.0 °F 82% 29.88 in 7.0 mi WSW 12.7 mph 21.9 mph 0.01 in Rain Light Rain
3:51 PM 37.0 °F 28.5 °F 30.9 °F 79% 29.90 in 10.0 mi WSW 13.8 mph 19.6 mph 0.00 in Rain Light Rain
4:36 PM 37.4 °F 29.8 °F 30.2 °F 75% 29.84 in 10.0 mi WSW 11.5 mph - 0.00 in   Overcast
4:51 PM 37.0 °F 30.4 °F 30.0 °F 76% 29.90 in 10.0 mi WSW 9.2 mph - 0.00 in   Overcast
5:51 PM 37.0 °F 29.3 °F 30.0 °F 76% 29.91 in 10.0 mi West 11.5 mph - 0.00 in Rain Light Rain
6:34 PM 35.6 °F 30.7 °F 30.2 °F 81% 29.86 in 10.0 mi West 5.8 mph - 0.00 in Rain Light Rain
6:51 PM 36.0 °F 33.3 °F 30.9 °F 82% 29.92 in 10.0 mi West 3.5 mph - 0.01 in Rain Light Rain
7:51 PM 34.0 °F - 32.0 °F 92% 29.93 in 8.0 mi Calm Calm - 0.02 in Rain Light Rain
8:06 PM 33.8 °F - 32.0 °F 93% 29.87 in 8.0 mi Calm Calm - 0.00 in Rain Light Rain
8:23 PM 33.8 °F 30.8 °F 30.2 °F 87% 29.86 in 6.0 mi North 3.5 mph - 0.00 in Snow Light Snow
8:30 PM 33.8 °F 29.6 °F 30.2 °F 87% 29.87 in 4.0 mi NNW 4.6 mph - 0.01 in Snow Light Snow
8:40 PM 33.8 °F 30.8 °F 30.2 °F 87% 29.87 in 4.0 mi North 3.5 mph - 0.01 in Snow Light Snow
8:51 PM 33.1 °F 27.7 °F 30.9 °F 92% 29.94 in 2.0 mi North 5.8 mph - 0.01 in Snow Light Snow
8:54 PM 33.8 °F 29.6 °F 30.2 °F 87% 29.87 in 1.5 mi North 4.6 mph - 0.00 in Snow Light Snow
9:08 PM 33.8 °F 30.8 °F 30.2 °F 87% 29.87 in 1.8 mi Variable 3.5 mph - 0.01 in Snow Light Snow
9:18 PM 33.8 °F - 30.2 °F 87% 29.89 in 1.2 mi Calm Calm - 0.02 in Snow Light Snow
9:51 PM 33.8 °F - 30.2 °F 87% 29.90 in 1.2 mi Calm Calm - N/A Snow Light Snow
10:02 PM 33.8 °F 29.6 °F 30.2 °F 87% 29.90 in 3.0 mi Variable 4.6 mph - 0.00 in Snow Light Snow
10:51 PM 35.1 °F 30.1 °F 30.9 °F 85% 29.96 in 8.0 mi Variable 5.8 mph - 0.03 in Rain Light Rain
11:30 PM 35.6 °F 30.7 °F 30.2 °F 81% 29.89 in 10.0 mi WSW 5.8 mph - 0.00 in   Overcast
11:51 PM 37.0 °F 31.0 °F 32.0 °F 82% 29.95 in 10.0 mi SW 8.1 mph - 0.00 in   Overcast